Truth Or Consequences, NM

10:39 AM MDT on August 18, 2017 (GMT -0600)
Truth Or Consequences Municipal

Weather History for KTCS - December, 2013

Change the Weather History Date:

Friday, December 6, 2013

  Actual Average Record
Temperature  
Mean Temperature 35 °F -  
Max Temperature 46 °F 54 °F 70 °F (2007)
Min Temperature 24 °F 29 °F 11 °F (2011)
Degree Days  
Heating Degree Days 30    
Month to date heating degree days  
Since 1 July heating degree days  
Moisture  
Dew Point 15 °F    
Average Humidity 44    
Maximum Humidity 78    
Minimum Humidity 10    
Precipitation  
Precipitation 0.00 in - 0.26 in (2004)
Month to date precipitation  
Year to date precipitation  
Sea Level Pressure  
Sea Level Pressure 30.02 in    
Wind  
Wind Speed 3 mph (SE)    
Max Wind Speed 9 mph    
Max Gust Speed -    
Visibility 10 miles    
Events      
T = Trace of Precipitation, MM = Missing Value Source: NWS Daily Summary

Daily Weather History Graph

Daily Weather History Graph

Search for Another Location

Airport or City:

Trip Planner

Search our weather history database for the weather conditions in past years. The results will help you decide how hot, cold, wet, or windy it might be!

Date:

Astronomy

Dec. 06, 2013 Rise Set
Actual Time 6:58 AM MST 5:01 PM MST
Civil Twilight 6:31 AM MST 5:28 PM MST
Nautical Twilight 6:00 AM MST 5:59 PM MST
Astronomical Twilight 5:30 AM MST 6:29 PM MST
Moon 10:13 AM MST (12/6) 9:28 PM MST (12/6)
Length of Visible Light 10h 57m
Length of Day
10h 02m
Waxing Crescent, 20% of the Moon is Illuminated
Dec 6
Waxing Crescent
Dec 9
First Quarter
Dec 17
Full
Dec 25
Last Quarter
Jan 1
New

Hourly Weather History & Observations

Time (MST) Temp. Windchill Dew Point Humidity Pressure Visibility Wind Dir Wind Speed Gust Speed Precip Events Conditions
12:53 AM 32.0 °F - 21.9 °F 66% 29.87 in 10.0 mi Calm Calm - N/A   Clear
1:53 AM 27.0 °F - 21.0 °F 78% 29.90 in 10.0 mi Calm Calm - N/A   Partly Cloudy
2:53 AM 27.0 °F 21.6 °F 21.0 °F 78% 29.92 in 10.0 mi NE 4.6 mph - N/A   Clear
3:53 AM 28.0 °F - 21.0 °F 75% 29.94 in 10.0 mi Calm Calm - N/A   Clear
4:53 AM 33.1 °F 28.7 °F 16.0 °F 50% 29.95 in 10.0 mi NW 4.6 mph - N/A   Clear
5:53 AM 30.9 °F 22.8 °F 15.1 °F 52% 29.99 in 10.0 mi NNW 9.2 mph - N/A   Clear
6:53 AM 25.0 °F 19.3 °F 16.0 °F 69% 30.04 in 10.0 mi NNE 4.6 mph - N/A   Clear
7:53 AM 28.9 °F 25.2 °F 17.1 °F 61% 30.06 in 10.0 mi SE 3.5 mph - N/A   Clear
8:53 AM 34.0 °F - 17.1 °F 50% 30.08 in 10.0 mi Calm Calm - N/A   Clear
9:53 AM 37.9 °F 35.5 °F 14.0 °F 38% 30.09 in 10.0 mi North 3.5 mph - N/A   Clear
10:53 AM 37.9 °F - 16.0 °F 41% 30.09 in 10.0 mi Calm Calm - N/A   Clear
11:53 AM 41.0 °F 39.0 °F 14.0 °F 33% 30.06 in 10.0 mi Variable 3.5 mph - N/A   Clear
12:53 PM 43.0 °F 38.2 °F 14.0 °F 31% 30.03 in 10.0 mi SE 8.1 mph - N/A   Clear
1:53 PM 45.0 °F 40.1 °F 12.9 °F 27% 30.01 in 10.0 mi SE 9.2 mph - N/A   Clear
2:53 PM 46.0 °F 41.9 °F 12.9 °F 26% 30.00 in 10.0 mi South 8.1 mph - N/A   Clear
3:53 PM 46.0 °F 43.9 °F 14.0 °F 28% 30.00 in 10.0 mi SSE 4.6 mph - N/A   Clear
4:53 PM 45.0 °F 41.2 °F 7.0 °F 21% 30.00 in 10.0 mi South 6.9 mph - N/A   Clear
5:53 PM 39.0 °F 34.8 °F 9.0 °F 29% 30.04 in 10.0 mi SSE 5.8 mph - N/A   Clear
6:53 PM 39.0 °F 34.0 °F 10.9 °F 32% 30.08 in 10.0 mi South 6.9 mph - N/A   Clear
7:53 PM 36.0 °F 33.3 °F 14.0 °F 41% 30.07 in 10.0 mi ESE 3.5 mph - N/A   Clear
8:53 PM 33.1 °F 28.7 °F 15.1 °F 48% 30.07 in 10.0 mi ENE 4.6 mph - N/A   Clear
9:53 PM 34.0 °F 29.8 °F 16.0 °F 48% 30.06 in 10.0 mi SSW 4.6 mph - N/A   Clear
10:53 PM 32.0 °F 25.6 °F 12.9 °F 45% 30.08 in 10.0 mi WSW 6.9 mph - N/A   Clear
11:53 PM 27.0 °F 18.7 °F 12.9 °F 56% 30.08 in 10.0 mi West 8.1 mph - N/A   Clear